Volver al catálogo

STARLINK-6264

ActivoComunicacionesVLEO
NORAD 56429·PAYLOAD·🇺🇸 United States

Lanzado May 4, 2023 desde Cape Canaveral Space Force Station

Loading…

Próximos Pases (próximas 24 horas)

TLE

ActualizadoSource: CelesTrak SupGP

Época: Sep 14, 2026, 13:35 UTC

1 56429C 23061BH  26257.56645833 -.00031081  00000+0 -11259-2 0  2571
2 56429  43.0002 193.1549 0001499 262.7950  59.9839 15.27589896    17

Sigue STARLINK-6264 en tiempo real con AllMySat

Download on the App Store